Regional Weather Roundup
Issued by NWS

Home | Current Version | Previous Version | Text Only | Print | Product List | Glossary Off
Versions: 1 2 3 4 5 6 7 8 9 10 11 12 13 14 15 16 17 18 19 20 21 22 23 24 25 26 27 28 29 30 31 32 33 34 35 36 37 38 39 40 41 42 43 44 45 46 47 48 49 50

000
ASUS43 KDTX 250101
RWRMI
MICHIGAN HOURLY REGIONAL WEATHER ROUNDUP
NATIONAL WEATHER SERVICE DETROIT/PONTIAC MI
800 PM EST FRI FEB 24 2017

NOTE: "FAIR" INDICATES FEW OR NO CLOUDS BELOW 12,000 FEET WITH NO
SIGNIFICANT WEATHER AND/OR OBSTRUCTION TO VISIBILITY.

MIZ047>049-052>055-059>063-066>070-074>076-081>083-250200-
SOUTHEAST LOWER MICHIGAN

CITY           SKY/WX    TMP DP  RH WIND       PRES   REMARKS
ADRIAN         CLOUDY    57  52  83 S10       29.45F
ALMA           CLOUDY    38  38  97 N5        29.43F FOG     WCI  35
ANN ARBOR      CLOUDY    59  54  83 S8        29.43F
BAD AXE        LGT RAIN  42  42 100 S5        29.47R
CARO           DRIZZLE   47  47 100 CALM      29.42F
DETROIT CITY   CLOUDY    62  52  69 S13       29.45F
DETROIT        CLOUDY    62  53  72 S10       29.46F
FLINT          CLOUDY    59  54  83 SW3       29.41F
GROSSE ILE     CLOUDY    48  44  86 SW7       29.45F
HILLSDALE      RAIN      59  54  82 S10       29.43F
HOWELL         CLOUDY    61  52  72 S12G18    29.42F

CITY           SKY/WX    TMP DP  RH WIND       PRES   REMARKS
JACKSON        CLOUDY    62  54  74 SW12      29.42F
LAMBERTVILLE   CLOUDY    64  52  66 S7        29.47S
LANSING        CLOUDY    58  55  90 S9        29.40F FOG
LAPEER         LGT RAIN  57  52  81 CALM      29.44S
MASON          CLOUDY    59  56  91 SW9G18    29.42R
MONROE         MOCLDY    63  54  72 S6        29.45F
MT. CLEMENS    MOCLDY    58  54  85 S12       29.42F
PONTIAC        CLOUDY    60  52  74 S10       29.43F
PORT HOPE        N/A     39  39 100 SE14      29.43F WCI  31
PORT HURON     CLOUDY    57  54  88 S7        29.45F
TRI CITIES     CLOUDY    38  38 100 NE12      29.43F WCI  30
MIDLAND        CLOUDY    38  37  94 E5        29.43F WCI  35
TROY           PTCLDY    58  53  83 S7        29.45F
SAGINAW HB     CLOUDY    37  36  93 N10       29.43F WCI  30
$$
MIZ043>046-050>051-056>058-064>065-071>073-077>080-250200-
SOUTHWEST LOWER MICHIGAN

CITY           SKY/WX    TMP DP  RH WIND       PRES   REMARKS
BATTLE CREEK   LGT RAIN  56  54  93 W16       29.44R
BENTON HARBOR  FOG       39  37  92 W13       29.50F VSB 1   WCI  31
BIG RAPIDS     CLOUDY    37  36  96 CALM      29.43S FOG
COLDWATER      CLOUDY    58  57  96 S9G16     29.44R
FREMONT        CLOUDY    39  39 100 CALM      29.42S FOG
HOLLAND        CLOUDY    43  42  97 SW10      29.46R
GRAND RAPIDS   FOG       47  45  93 SW9       29.43R VSB 3/4
IONIA          CLOUDY    42  42  99 N3        29.42R FOG
KALAMAZOO      CLOUDY    51  46  83 W20G26    29.46R
LUDINGTON      CLOUDY    34  34 100 N7        29.46R FOG     WCI  28
MARSHALL       LGT RAIN  58  57  96 SW9       29.42S
MOUNT PLEASANT LGT RAIN  37  37  98 N5        29.43F WCI  33
MUSKEGON       CLOUDY    41  40  96 W5        29.45R FOG
SOUTH HAVEN    CLOUDY    38  38 100 W12       29.48F FOG     WCI  31
$$
MIZ016>042-250200-
NORTHERN LOWER MICHIGAN

CITY           SKY/WX    TMP DP  RH WIND       PRES   REMARKS
ALPENA         LGT RAIN  34  33  96 E12       29.52F WCI  25
BEAVER ISLAND  MIX PCPN  29  28  99 NE8G18    29.57S WCI  21
BELLAIRE       CLOUDY    33  32  94 N6        29.50F WCI  28
CADILLAC       MIX PCPN  33  32  96 NE6       29.43F WCI  27
CHARLEVOIX     CLOUDY    32  32  99 NE15G22   29.55S FOG     WCI  22
FRANKFORT      CLOUDY    34  33  96 NE6       29.48F FOG     WCI  29
GAYLORD        FRZ RAIN  33  29  85 NE12G22   29.47F FOG     WCI  24
GRAYLING       LGT SNOW  33  32  96 NE10      29.47F WCI  25
HARBOR SPRINGS LGT SNOW  31  30  96 E18G26    29.52S WCI  19
HOUGHTON LAKE  LGT RAIN  34  32  92 NE7       29.46S WCI  28
MANISTEE       MIX PCPN  34  33  96 N5        29.46F FOG     WCI  30
OSCODA         CLOUDY    36  35  96 NE13      29.47F WCI  27
PELLSTON       LGT SNOW  31  27  85 E13       29.55F FOG     WCI  21
ROGERS CITY    LGT SNOW  33  31  94 E9        29.55F WCI  25
TRAVERSE CITY  DRIZZLE   35  33  92 N12       29.47F FOG     WCI  27
$$
MIZ007>008-015-250200-
EASTERN UPPER MICHIGAN

CITY           SKY/WX    TMP DP  RH WIND       PRES   REMARKS
KINROSS        LGT SNOW  26  24  92 NE15      29.58F FOG     WCI  14
MACKINAC ISLAN LGT SNOW  28  28 100 NE16      29.56F WCI  16
NEWBERRY       LGT SNOW  23  22  97 N13       29.60F WCI  11
S. S. MARIE    LGT SNOW  26  21  81 NE9       29.63S WCI  17
MUNISING         N/A     27  25  92 NE26      29.63F WCI  12
$$
MIZ004>006-011>014-085-250200-
CENTRAL UPPER MICHIGAN

CITY           SKY/WX    TMP DP  RH WIND       PRES   REMARKS
MANISTIQUE     LGT SNOW  25  25  98 N9        29.59F WCI  16
ESCANABA       FLURRIES  25  23  92 N13       29.62S WCI  14
MENOMINEE      MIX PCPN  24  22  91 N13G24    29.60F FOG     WCI  12
SAWYER-GWINN   FLURRIES  21  19  93 N18G26    29.64F WCI   6
$$
MIZ001>003-009>011-084-250200-
WESTERN UPPER MICHIGAN

CITY           SKY/WX    TMP DP  RH WIND       PRES   REMARKS
IRON MOUNTAIN  MIX PCPN  21  14  74 N15       29.63F WCI   8
HOUGHTON       LGT SNOW  19  13  77 N12       29.75F WCI   7
COPPER HARBOR    N/A     24  18  77 E24G30    29.78F WCI   8
IRONWOOD       LGT SNOW  17  14  88 N10G20    29.79S FOG     WCI   5
$$

ABBREVIATIONS USED IN REMARKS
   TC - TEMPERATURE IN CELSIUS
  WCI - WIND CHILL INDEX
   HX - HEAT INDEX
  VSB - VISIBILITY





USA.gov is the U.S. government's official web portal to all federal, state and local government web resources and services.